HUBBLE
1 20580U 90037B 09343.60367032 .00000302 00000-0 10356-4 0 4876
2 20580 028.4710 037.3903 0003225 346.8092 013.2428 15.00863663876232
ISS
1 25544U 98067A 09344.87415091 .00009658 00000-0 63587-4 0 1482
2 25544 051.6444 118.7669 0008007 067.1016 071.3090 15.76439945633791
CO-58
1 28895U 05043F 09342.23312638 -.00000042 00000-0 63087-6 0 4600
2 28895 098.0372 227.7430 0018247 160.6581 199.5292 14.59821754219125
FALCON
1 30776U 07006E 09344.75982071 .00000350 00000-0 28252-4 0 7196
2 30776 035.4325 108.0132 0002091 349.0918 010.9752 15.03389258151687
MAST
1 31126U 07012K 09344.12618289 .00000068 00000-0 25535-4 0 7514
2 31126 097.9661 030.6500 0095737 093.4770 267.7397 14.53537334140596
CAPE1
1 31130U 07012P 09344.13146678 .00000022 00000-0 15567-4 0 7635
2 31130 097.9679 028.4532 0103898 100.3387 260.9541 14.52113203140220
COMPASS
1 32787U 08021E 09344.22835410 .00000562 00000-0 77951-4 0 5399
2 32787 097.9219 046.3632 0015771 176.4660 183.6663 14.81712810 87518
AAUSAT2
1 32788U 08021F 09344.18132879 .00000116 00000-0 21443-4 0 5327
2 32788 097.9218 046.4052 0015489 178.1106 182.0166 14.81840681 87514
DO-64
1 32789U 08021G 09344.74181159 .00000411 00000-0 58573-4 0 5495
2 32789 097.9275 047.2490 0015699 174.4347 185.7043 14.81882949 87597
CO-66
1 32791U 08021J 09344.22474173 .00000392 00000-0 56599-4 0 5294
2 32791 097.9234 046.3901 0016040 174.8918 185.2454 14.81525487 87470
RS-30
1 32953U 08025A 09343.57657706 .00000010 00000-0 00000-0 0 04737
2 32953 082.4995 147.5765 0019165 154.6018 205.6009 12.43003179070181
TACSAT-3
1 35001U 09028A 09344.23473825 .00002929 00000-0 77542-4 0 1647
2 35001 040.4567 267.3116 0022732 028.4750 331.7302 15.39748427 31480
PHARMSAT
1 35002U 09028B 09344.91298205 .00002227 00000-0 58969-4 0 1575
2 35002 040.4685 262.0795 0025788 038.4193 321.8463 15.40451420 31599
HAWKSAT1
1 35003U 09028C 09343.91187513 .00004957 00000-0 11913-3 0 1630
2 35003 040.4637 266.6307 0025432 035.0542 325.1939 15.41650077 31464
CP6
1 35004U 09028D 09343.90393848 .00005535 00000-0 13154-3 0 1575
2 35004 040.4649 266.5770 0024814 035.6723 324.5746 15.41851812 31459
AEROCUB3
1 35005U 09028E 09344.90273128 .00007625 00000-0 18007-3 0 1625
2 35005 040.4756 261.1790 0025002 039.5380 320.7270 15.41661825 31604
DRAGNSAT
1 35690U 09038B 09344.76570910 .00045171 00000-0 15282-3 0 1359
2 35690 051.6363 109.8599 0003869 243.9995 116.0617 15.89459764 21123
POLLUX
1 35693U 09038E 09344.77090188 .00040043 00000-0 14572-3 0 1429
2 35693 051.6371 110.6637 0002793 189.4886 170.6010 15.88055698 21081
CASTOR
1 35694U 09038F 09344.78407903 .00016740 00000-0 76455-4 0 1266
2 35694 051.6392 112.3061 0003740 172.6969 187.4067 15.83925008 21066
METEOR-M
1 35865U 09049A 09344.32698875 .00000176 00000-0 10000-3 0 749
2 35865 098.7872 034.2180 0002269 169.6718 190.4452 14.21828127 11884
